Location: Milton Keynes
(52.0316°N, 0.7531°W)
Time: 22:48:46
(UTC+00:00)

Genesis I - Pass Details

Date: 30 January 2019
Orbit: 476 x 550 km, 64.5° (Epoch: 18 February)

Event Time Altitude Azimuth Distance (km) Brightness Sun altitude
Exits shadow 06:25:34 14° 318° (NW) 1,590 5.2 -12.5°
Maximum altitude 06:27:12 17° 346° (NNW) 1,443 5.2 -12.2°
Drops below altitude 10° 06:29:57 10° 27° (NNE) 1,837 6.2 -11.8°
Sets 06:32:50 0° 49° (NE) 2,729 7.4 -11.4°
